Location: Newark
(44.9333°N, 0.5667°E)
Time: 05:35:51
(UTC+00:00)

N. Korean satellite - Pass Details

Date: 18 December 2019
Orbit: 454 x 508 km, 97.2° (Epoch: 20 January)

Event Time Altitude Azimuth Distance (km) Brightness Sun altitude
Rises 04:44:26 0° 33° (NNE) 2,510 10.5 -28.3°
Reaches altitude 10° 04:47:39 10° 66° (ENE) 1,616 9.9 -27.8°
Maximum altitude 04:49:03 12° 90° (E) 1,489 9.9 -27.5°
Drops below altitude 10° 04:50:26 10° 114° (ESE) 1,602 10.1 -27.3°
Sets 04:53:34 0° 147° (SSE) 2,461 10.7 -26.7°
